Weather History for Clermont County, Batavia, OH

Change the Weather History Date:

Sunday, April 27, 2014

  Actual Average (KLUK) Record (KLUK)
Temperature  
Mean Temperature 62 °F -  
Max Temperature 77 °F 70 °F 89 °F (1986)
Min Temperature 48 °F 46 °F 33 °F (2003)
Degree Days  
Heating Degree Days 2    
Growing Degree Days 12 (Base 50)    
Moisture  
Dew Point 40 °F    
Average Humidity 46    
Maximum Humidity 67    
Minimum Humidity 28    
Precipitation  
Precipitation 0.00 in - - ()
Sea Level Pressure  
Sea Level Pressure 29.96 in    
Wind  
Wind Speed 7 mph (East)    
Max Wind Speed 12 mph    
Max Gust Speed 17 mph    
Visibility 10 miles    
Events      
Averages and records for this station are not official NWS values.
T = Trace of Precipitation, MM = Missing Value Source: NWS Daily Summary

Daily Weather History Graph

Daily Weather History Graph

Search for Another Location

Airport:

Trip Planner

Search our weather history database for the weather conditions in past years. The results will help you decide how hot, cold, wet, or windy it might be!

Date:

Astronomy

Apr. 27, 2014 Rise Set
Actual Time 6:43 AM EDT 8:25 PM EDT
Civil Twilight 6:15 AM EDT 8:54 PM EDT
Nautical Twilight 5:40 AM EDT 9:29 PM EDT
Astronomical Twilight 5:04 AM EDT 10:05 PM EDT
Moon 5:42 AM EDT (4/27) 6:59 PM EDT (4/27)
Length of Visible Light 14h 39m
Length of Day
13h 42m
Waning Crescent, 3% of the Moon is Illuminated
Apr 27
Waning Crescent
Apr 29
New
May 6
First Quarter
May 14
Full
May 21
Last Quarter

Hourly Weather History & Observations

Time (EDT) Temp. Dew Point Humidity Pressure Visibility Wind Dir Wind Speed Gust Speed Precip Events Conditions
12:14 AM 60.8 °F 41.0 °F 48% 29.97 in 10.0 mi ENE 4.6 mph - N/A   Clear
12:33 AM 59.0 °F 41.0 °F 51% 29.97 in 10.0 mi NE 3.5 mph - N/A   Clear
12:54 AM 59.0 °F 41.0 °F 51% 29.97 in 10.0 mi ENE 4.6 mph - N/A   Clear
1:14 AM 59.0 °F 41.0 °F 51% 29.98 in 10.0 mi ENE 4.6 mph - N/A   Clear
1:33 AM 57.2 °F 41.0 °F 55% 29.98 in 10.0 mi East 4.6 mph - N/A   Clear
1:54 AM 55.4 °F 41.0 °F 58% 29.98 in 10.0 mi ENE 5.8 mph - N/A   Clear
2:14 AM 55.4 °F 41.0 °F 58% 29.98 in 10.0 mi ENE 5.8 mph - N/A   Clear
2:33 AM 53.6 °F 41.0 °F 62% 29.98 in 10.0 mi ENE 4.6 mph - N/A   Clear
2:54 AM 53.6 °F 41.0 °F 62% 29.98 in 10.0 mi NE 5.8 mph - N/A   Clear
3:14 AM 53.6 °F 41.0 °F 62% 29.98 in 10.0 mi East 6.9 mph - N/A   Clear
3:33 AM 51.8 °F 41.0 °F 67% 29.98 in 10.0 mi ENE 4.6 mph - N/A   Clear
3:54 AM 51.8 °F 39.2 °F 62% 29.97 in 10.0 mi ENE 8.1 mph - N/A   Clear
4:14 AM 51.8 °F 39.2 °F 62% 29.97 in 10.0 mi East 8.1 mph - N/A   Clear
4:33 AM 50.0 °F 37.4 °F 62% 29.98 in 10.0 mi East 5.8 mph - N/A   Clear
4:54 AM 50.0 °F 37.4 °F 62% 29.99 in 10.0 mi East 5.8 mph - N/A   Clear
5:14 AM 50.0 °F 37.4 °F 62% 30.00 in 10.0 mi ENE 5.8 mph - N/A   Scattered Clouds
5:33 AM 50.0 °F 37.4 °F 62% 30.00 in 10.0 mi East 8.1 mph - N/A   Mostly Cloudy
5:54 AM 50.0 °F 35.6 °F 58% 30.01 in 10.0 mi ENE 6.9 mph - N/A   Mostly Cloudy
6:14 AM 50.0 °F 35.6 °F 58% 30.01 in 10.0 mi ENE 5.8 mph - N/A   Scattered Clouds
6:33 AM 48.2 °F 35.6 °F 62% 30.02 in 10.0 mi ENE 8.1 mph - N/A   Scattered Clouds
6:54 AM 48.2 °F 35.6 °F 62% 30.02 in 10.0 mi East 8.1 mph - N/A   Clear
7:14 AM 48.2 °F 35.6 °F 62% 30.03 in 10.0 mi East 8.1 mph - N/A   Scattered Clouds
7:33 AM 48.2 °F 35.6 °F 62% 30.04 in 10.0 mi East 5.8 mph - N/A   Clear
7:54 AM 48.2 °F 37.4 °F 66% 30.04 in 10.0 mi East 6.9 mph - N/A   Clear
8:14 AM 50.0 °F 37.4 °F 62% 30.05 in 10.0 mi East 10.4 mph - N/A   Clear
8:33 AM 50.0 °F 37.4 °F 62% 30.05 in 10.0 mi East 8.1 mph - N/A   Clear
8:54 AM 51.8 °F 37.4 °F 58% 30.05 in 10.0 mi East 8.1 mph - N/A   Clear
9:14 AM 53.6 °F 37.4 °F 54% 30.04 in 10.0 mi East 10.4 mph - N/A   Clear
9:33 AM 53.6 °F 37.4 °F 54% 30.04 in 10.0 mi East 10.4 mph - N/A   Clear
9:54 AM 55.4 °F 37.4 °F 51% 30.04 in 10.0 mi East 10.4 mph 16.1 mph N/A   Clear
10:14 AM 59.0 °F 39.2 °F 48% 30.04 in 10.0 mi East 9.2 mph 17.3 mph N/A   Scattered Clouds
10:34 AM 59.0 °F 37.4 °F 45% 30.03 in 10.0 mi East 10.4 mph - N/A   Scattered Clouds
10:54 AM 60.8 °F 39.2 °F 45% 30.03 in 10.0 mi East 10.4 mph - N/A   Clear
11:14 AM 60.8 °F 37.4 °F 42% 30.02 in 10.0 mi East 10.4 mph - N/A   Clear
11:34 AM 62.6 °F 39.2 °F 42% 30.02 in 10.0 mi East 8.1 mph - N/A   Clear
12:34 PM 66.2 °F 39.2 °F 37% 29.98 in 10.0 mi East 9.2 mph 16.1 mph N/A   Clear
12:54 PM 68.0 °F 41.0 °F 37% 29.97 in 10.0 mi East 10.4 mph - N/A   Clear
1:13 PM 69.8 °F 41.0 °F 35% 29.96 in 10.0 mi East 10.4 mph - N/A   Clear
1:34 PM 69.8 °F 41.0 °F 35% 29.95 in 10.0 mi ESE 10.4 mph - N/A   Clear
1:54 PM 71.6 °F 41.0 °F 33% 29.95 in 10.0 mi East 9.2 mph - N/A   Clear
2:13 PM 71.6 °F 42.8 °F 35% 29.95 in 10.0 mi East 8.1 mph - N/A   Clear
2:34 PM 73.4 °F 41.0 °F 31% 29.95 in 10.0 mi East 6.9 mph - N/A   Clear
2:54 PM 73.4 °F 42.8 °F 33% 29.93 in 10.0 mi ENE 6.9 mph - N/A   Clear
3:13 PM 73.4 °F 41.0 °F 31% 29.94 in 10.0 mi East 8.1 mph - N/A   Clear
3:34 PM 75.2 °F 42.8 °F 31% 29.92 in 10.0 mi East 8.1 mph - N/A   Clear
4:13 PM 77.0 °F 42.8 °F 29% 29.90 in 10.0 mi East 9.2 mph - N/A   Clear
4:34 PM 77.0 °F 42.8 °F 29% 29.89 in 10.0 mi East 10.4 mph 17.3 mph N/A   Clear
4:54 PM 77.0 °F 42.8 °F 29% 29.89 in 10.0 mi East 9.2 mph - N/A   Clear
5:13 PM 77.0 °F 41.0 °F 28% 29.88 in 10.0 mi East 8.1 mph - N/A   Clear
5:34 PM 77.0 °F 42.8 °F 29% 29.88 in 10.0 mi East 9.2 mph - N/A   Clear
5:54 PM 75.2 °F 42.8 °F 31% 29.88 in 10.0 mi East 11.5 mph - N/A   Clear
6:13 PM 75.2 °F 41.0 °F 29% 29.88 in 10.0 mi East 9.2 mph - N/A   Clear
6:34 PM 75.2 °F 41.0 °F 29% 29.87 in 10.0 mi East 9.2 mph 16.1 mph N/A   Clear
6:54 PM 73.4 °F 42.8 °F 33% 29.87 in 10.0 mi East 8.1 mph - N/A   Clear
7:13 PM 73.4 °F 41.0 °F 31% 29.88 in 10.0 mi East 8.1 mph - N/A   Clear
7:34 PM 73.4 °F 41.0 °F 31% 29.88 in 10.0 mi East 6.9 mph - N/A   Clear
7:54 PM 71.6 °F 41.0 °F 33% 29.88 in 10.0 mi East 5.8 mph - N/A   Clear
8:13 PM 71.6 °F 41.0 °F 33% 29.87 in 10.0 mi East 5.8 mph - N/A   Clear
8:34 PM 69.8 °F 41.0 °F 35% 29.88 in 10.0 mi East 5.8 mph - N/A   Clear
8:54 PM 69.8 °F 42.8 °F 38% 29.89 in 10.0 mi East 5.8 mph - N/A   Clear
9:13 PM 68.0 °F 41.0 °F 37% 29.89 in 10.0 mi East 4.6 mph - N/A   Clear
9:34 PM 68.0 °F 41.0 °F 37% 29.90 in 10.0 mi East 6.9 mph - N/A   Clear
9:54 PM 68.0 °F 41.0 °F 37% 29.90 in 10.0 mi East 5.8 mph - N/A   Clear
10:13 PM 66.2 °F 41.0 °F 40% 29.89 in 10.0 mi East 5.8 mph - N/A   Clear
10:34 PM 64.4 °F 42.8 °F 45% 29.89 in 10.0 mi East 5.8 mph - N/A   Clear
10:54 PM 64.4 °F 42.8 °F 45% 29.89 in 10.0 mi East 6.9 mph - N/A   Clear
11:14 PM 62.6 °F 42.8 °F 48% 29.87 in 10.0 mi East 6.9 mph - N/A   Clear
11:34 PM 62.6 °F 42.8 °F 48% 29.87 in 10.0 mi East 6.9 mph - N/A   Clear
11:54 PM 62.6 °F 41.0 °F 45% 29.86 in 10.0 mi East 8.1 mph - N/A   Clear